Index of /20260422/WXO-DD/model_gdps/15km/00/123
Name Last modified Size Description
Parent Directory -
20260422T00Z_MSC_GDPS_AbsoluteVorticity_IsbL-0200_LatLon0.15_PT123H.grib2 2026-04-22 04:34 1.2M
20260422T00Z_MSC_GDPS_AbsoluteVorticity_IsbL-0250_LatLon0.15_PT123H.grib2 2026-04-22 04:34 1.3M
20260422T00Z_MSC_GDPS_AbsoluteVorticity_IsbL-0500_LatLon0.15_PT123H.grib2 2026-04-22 04:34 1.4M
20260422T00Z_MSC_GDPS_AbsoluteVorticity_IsbL-0700_LatLon0.15_PT123H.grib2 2026-04-22 04:34 1.6M
20260422T00Z_MSC_GDPS_AbsoluteVorticity_IsbL-0850_LatLon0.15_PT123H.grib2 2026-04-22 04:34 1.6M
20260422T00Z_MSC_GDPS_AirTemp_AGL-120m_LatLon0.15_PT123H.grib2 2026-04-22 04:34 906K
20260422T00Z_MSC_GDPS_AirTemp_AGL-2m_LatLon0.15_PT123H.grib2 2026-04-22 04:34 1.0M
20260422T00Z_MSC_GDPS_AirTemp_AGL-40m_LatLon0.15_PT123H.grib2 2026-04-22 04:34 930K
20260422T00Z_MSC_GDPS_AirTemp_AGL-80m_LatLon0.15_PT123H.grib2 2026-04-22 04:34 917K
20260422T00Z_MSC_GDPS_AirTemp_IsbL-0001_LatLon0.15_PT123H.grib2 2026-04-22 04:34 706K
20260422T00Z_MSC_GDPS_AirTemp_IsbL-0005_LatLon0.15_PT123H.grib2 2026-04-22 04:34 684K
20260422T00Z_MSC_GDPS_AirTemp_IsbL-0010_LatLon0.15_PT123H.grib2 2026-04-22 04:34 754K
20260422T00Z_MSC_GDPS_AirTemp_IsbL-0020_LatLon0.15_PT123H.grib2 2026-04-22 04:34 694K
20260422T00Z_MSC_GDPS_AirTemp_IsbL-0030_LatLon0.15_PT123H.grib2 2026-04-22 04:34 744K
20260422T00Z_MSC_GDPS_AirTemp_IsbL-0050_LatLon0.15_PT123H.grib2 2026-04-22 04:34 800K
20260422T00Z_MSC_GDPS_AirTemp_IsbL-0100_LatLon0.15_PT123H.grib2 2026-04-22 04:34 1.0M
20260422T00Z_MSC_GDPS_AirTemp_IsbL-0150_LatLon0.15_PT123H.grib2 2026-04-22 04:34 1.0M
20260422T00Z_MSC_GDPS_AirTemp_IsbL-0175_LatLon0.15_PT123H.grib2 2026-04-22 04:34 947K
20260422T00Z_MSC_GDPS_AirTemp_IsbL-0200_LatLon0.15_PT123H.grib2 2026-04-22 04:34 963K
20260422T00Z_MSC_GDPS_AirTemp_IsbL-0225_LatLon0.15_PT123H.grib2 2026-04-22 04:34 967K
20260422T00Z_MSC_GDPS_AirTemp_IsbL-0250_LatLon0.15_PT123H.grib2 2026-04-22 04:34 1.0M
20260422T00Z_MSC_GDPS_AirTemp_IsbL-0275_LatLon0.15_PT123H.grib2 2026-04-22 04:34 1.0M
20260422T00Z_MSC_GDPS_AirTemp_IsbL-0300_LatLon0.15_PT123H.grib2 2026-04-22 04:34 1.0M
20260422T00Z_MSC_GDPS_AirTemp_IsbL-0350_LatLon0.15_PT123H.grib2 2026-04-22 04:34 917K
20260422T00Z_MSC_GDPS_AirTemp_IsbL-0400_LatLon0.15_PT123H.grib2 2026-04-22 04:34 930K
20260422T00Z_MSC_GDPS_AirTemp_IsbL-0450_LatLon0.15_PT123H.grib2 2026-04-22 04:34 955K
20260422T00Z_MSC_GDPS_AirTemp_IsbL-0500_LatLon0.15_PT123H.grib2 2026-04-22 04:34 1.0M
20260422T00Z_MSC_GDPS_AirTemp_IsbL-0550_LatLon0.15_PT123H.grib2 2026-04-22 04:34 795K
20260422T00Z_MSC_GDPS_AirTemp_IsbL-0600_LatLon0.15_PT123H.grib2 2026-04-22 04:34 887K
20260422T00Z_MSC_GDPS_AirTemp_IsbL-0650_LatLon0.15_PT123H.grib2 2026-04-22 04:34 914K
20260422T00Z_MSC_GDPS_AirTemp_IsbL-0700_LatLon0.15_PT123H.grib2 2026-04-22 04:34 947K
20260422T00Z_MSC_GDPS_AirTemp_IsbL-0750_LatLon0.15_PT123H.grib2 2026-04-22 04:34 1.0M
20260422T00Z_MSC_GDPS_AirTemp_IsbL-0800_LatLon0.15_PT123H.grib2 2026-04-22 04:34 1.1M
20260422T00Z_MSC_GDPS_AirTemp_IsbL-0850_LatLon0.15_PT123H.grib2 2026-04-22 04:34 1.1M
20260422T00Z_MSC_GDPS_AirTemp_IsbL-0875_LatLon0.15_PT123H.grib2 2026-04-22 04:34 1.2M
20260422T00Z_MSC_GDPS_AirTemp_IsbL-0900_LatLon0.15_PT123H.grib2 2026-04-22 04:34 1.1M
20260422T00Z_MSC_GDPS_AirTemp_IsbL-0925_LatLon0.15_PT123H.grib2 2026-04-22 04:34 1.1M
20260422T00Z_MSC_GDPS_AirTemp_IsbL-0950_LatLon0.15_PT123H.grib2 2026-04-22 04:34 1.1M
20260422T00Z_MSC_GDPS_AirTemp_IsbL-0970_LatLon0.15_PT123H.grib2 2026-04-22 04:34 1.2M
20260422T00Z_MSC_GDPS_AirTemp_IsbL-0985_LatLon0.15_PT123H.grib2 2026-04-22 04:34 1.1M
20260422T00Z_MSC_GDPS_AirTemp_IsbL-1000_LatLon0.15_PT123H.grib2 2026-04-22 04:34 1.1M
20260422T00Z_MSC_GDPS_AirTemp_IsbL-1015_LatLon0.15_PT123H.grib2 2026-04-22 04:34 1.1M
20260422T00Z_MSC_GDPS_Albedo_Sfc_LatLon0.15_PT123H.grib2 2026-04-22 04:34 247K
20260422T00Z_MSC_GDPS_CAPE_Sfc_LatLon0.15_PT123H.grib2 2026-04-22 04:34 4.0M
20260422T00Z_MSC_GDPS_CIN_Sfc_LatLon0.15_PT123H.grib2 2026-04-22 04:34 3.0M
20260422T00Z_MSC_GDPS_CloudWater_EAtm_LatLon0.15_PT123H.grib2 2026-04-22 04:34 532K
20260422T00Z_MSC_GDPS_ConvectivePrecip-Accum_Sfc_LatLon0.15_PT123H.grib2 2026-04-22 04:34 3.5M
20260422T00Z_MSC_GDPS_DewPointDepression_AGL-2m_LatLon0.15_PT123H.grib2 2026-04-22 04:34 757K
20260422T00Z_MSC_GDPS_DewPointDepression_IsbL-0010_LatLon0.15_PT123H.grib2 2026-04-22 04:34 35K
20260422T00Z_MSC_GDPS_DewPointDepression_IsbL-0020_LatLon0.15_PT123H.grib2 2026-04-22 04:34 75K
20260422T00Z_MSC_GDPS_DewPointDepression_IsbL-0030_LatLon0.15_PT123H.grib2 2026-04-22 04:34 63K
20260422T00Z_MSC_GDPS_DewPointDepression_IsbL-0050_LatLon0.15_PT123H.grib2 2026-04-22 04:34 363K
20260422T00Z_MSC_GDPS_DewPointDepression_IsbL-0100_LatLon0.15_PT123H.grib2 2026-04-22 04:34 391K
20260422T00Z_MSC_GDPS_DewPointDepression_IsbL-0150_LatLon0.15_PT123H.grib2 2026-04-22 04:34 458K
20260422T00Z_MSC_GDPS_DewPointDepression_IsbL-0175_LatLon0.15_PT123H.grib2 2026-04-22 04:34 552K
20260422T00Z_MSC_GDPS_DewPointDepression_IsbL-0200_LatLon0.15_PT123H.grib2 2026-04-22 04:34 653K
20260422T00Z_MSC_GDPS_DewPointDepression_IsbL-0225_LatLon0.15_PT123H.grib2 2026-04-22 04:34 769K
20260422T00Z_MSC_GDPS_DewPointDepression_IsbL-0250_LatLon0.15_PT123H.grib2 2026-04-22 04:34 853K
20260422T00Z_MSC_GDPS_DewPointDepression_IsbL-0275_LatLon0.15_PT123H.grib2 2026-04-22 04:34 874K
20260422T00Z_MSC_GDPS_DewPointDepression_IsbL-0300_LatLon0.15_PT123H.grib2 2026-04-22 04:34 921K
20260422T00Z_MSC_GDPS_DewPointDepression_IsbL-0350_LatLon0.15_PT123H.grib2 2026-04-22 04:34 955K
20260422T00Z_MSC_GDPS_DewPointDepression_IsbL-0400_LatLon0.15_PT123H.grib2 2026-04-22 04:34 1.0M
20260422T00Z_MSC_GDPS_DewPointDepression_IsbL-0450_LatLon0.15_PT123H.grib2 2026-04-22 04:34 1.0M
20260422T00Z_MSC_GDPS_DewPointDepression_IsbL-0500_LatLon0.15_PT123H.grib2 2026-04-22 04:34 1.0M
20260422T00Z_MSC_GDPS_DewPointDepression_IsbL-0550_LatLon0.15_PT123H.grib2 2026-04-22 04:34 1.0M
20260422T00Z_MSC_GDPS_DewPointDepression_IsbL-0600_LatLon0.15_PT123H.grib2 2026-04-22 04:34 1.1M
20260422T00Z_MSC_GDPS_DewPointDepression_IsbL-0650_LatLon0.15_PT123H.grib2 2026-04-22 04:34 1.1M
20260422T00Z_MSC_GDPS_DewPointDepression_IsbL-0700_LatLon0.15_PT123H.grib2 2026-04-22 04:34 1.1M
20260422T00Z_MSC_GDPS_DewPointDepression_IsbL-0750_LatLon0.15_PT123H.grib2 2026-04-22 04:34 1.1M
20260422T00Z_MSC_GDPS_DewPointDepression_IsbL-0800_LatLon0.15_PT123H.grib2 2026-04-22 04:34 1.2M
20260422T00Z_MSC_GDPS_DewPointDepression_IsbL-0850_LatLon0.15_PT123H.grib2 2026-04-22 04:34 1.2M
20260422T00Z_MSC_GDPS_DewPointDepression_IsbL-0875_LatLon0.15_PT123H.grib2 2026-04-22 04:34 1.1M
20260422T00Z_MSC_GDPS_DewPointDepression_IsbL-0900_LatLon0.15_PT123H.grib2 2026-04-22 04:34 1.1M
20260422T00Z_MSC_GDPS_DewPointDepression_IsbL-0925_LatLon0.15_PT123H.grib2 2026-04-22 04:34 1.0M
20260422T00Z_MSC_GDPS_DewPointDepression_IsbL-0950_LatLon0.15_PT123H.grib2 2026-04-22 04:34 1.0M
20260422T00Z_MSC_GDPS_DewPointDepression_IsbL-0970_LatLon0.15_PT123H.grib2 2026-04-22 04:34 1.0M
20260422T00Z_MSC_GDPS_DewPointDepression_IsbL-0985_LatLon0.15_PT123H.grib2 2026-04-22 04:34 1.0M
20260422T00Z_MSC_GDPS_DewPointDepression_IsbL-1000_LatLon0.15_PT123H.grib2 2026-04-22 04:34 972K
20260422T00Z_MSC_GDPS_DewPointDepression_IsbL-1015_LatLon0.15_PT123H.grib2 2026-04-22 04:34 918K
20260422T00Z_MSC_GDPS_DewPoint_AGL-2m_LatLon0.15_PT123H.grib2 2026-04-22 04:34 603K
20260422T00Z_MSC_GDPS_DownwardLongwaveRadiationFlux-Accum_Sfc_LatLon0.15_PT123H.grib2 2026-04-22 04:34 808K
20260422T00Z_MSC_GDPS_DownwardShortwaveRadiationFlux-Accum_NTAtm_LatLon0.15_PT123H.grib2 2026-04-22 04:34 171K
20260422T00Z_MSC_GDPS_DownwardShortwaveRadiationFlux-Accum_Sfc_LatLon0.15_PT123H.grib2 2026-04-22 04:34 1.0M
20260422T00Z_MSC_GDPS_FreezingRain-Accum1h_Sfc_LatLon0.15_PT123H.grib2 2026-04-22 04:34 31K
20260422T00Z_MSC_GDPS_FreezingRain-Accum3h_Sfc_LatLon0.15_PT123H.grib2 2026-04-22 04:34 33K
20260422T00Z_MSC_GDPS_FreezingRain-Accum_Sfc_LatLon0.15_PT123H.grib2 2026-04-22 04:34 406K
20260422T00Z_MSC_GDPS_GeopotentialHeight_IsbL-0001_LatLon0.15_PT123H.grib2 2026-04-22 04:34 390K
20260422T00Z_MSC_GDPS_GeopotentialHeight_IsbL-0005_LatLon0.15_PT123H.grib2 2026-04-22 04:34 493K
20260422T00Z_MSC_GDPS_GeopotentialHeight_IsbL-0010_LatLon0.15_PT123H.grib2 2026-04-22 04:34 478K
20260422T00Z_MSC_GDPS_GeopotentialHeight_IsbL-0020_LatLon0.15_PT123H.grib2 2026-04-22 04:34 415K
20260422T00Z_MSC_GDPS_GeopotentialHeight_IsbL-0030_LatLon0.15_PT123H.grib2 2026-04-22 04:34 572K
20260422T00Z_MSC_GDPS_GeopotentialHeight_IsbL-0050_LatLon0.15_PT123H.grib2 2026-04-22 04:34 569K
20260422T00Z_MSC_GDPS_GeopotentialHeight_IsbL-0100_LatLon0.15_PT123H.grib2 2026-04-22 04:34 603K
20260422T00Z_MSC_GDPS_GeopotentialHeight_IsbL-0150_LatLon0.15_PT123H.grib2 2026-04-22 04:34 620K
20260422T00Z_MSC_GDPS_GeopotentialHeight_IsbL-0175_LatLon0.15_PT123H.grib2 2026-04-22 04:34 624K
20260422T00Z_MSC_GDPS_GeopotentialHeight_IsbL-0200_LatLon0.15_PT123H.grib2 2026-04-22 04:34 628K
20260422T00Z_MSC_GDPS_GeopotentialHeight_IsbL-0225_LatLon0.15_PT123H.grib2 2026-04-22 04:34 631K
20260422T00Z_MSC_GDPS_GeopotentialHeight_IsbL-0250_LatLon0.15_PT123H.grib2 2026-04-22 04:34 634K
20260422T00Z_MSC_GDPS_GeopotentialHeight_IsbL-0275_LatLon0.15_PT123H.grib2 2026-04-22 04:34 634K
20260422T00Z_MSC_GDPS_GeopotentialHeight_IsbL-0300_LatLon0.15_PT123H.grib2 2026-04-22 04:34 627K
20260422T00Z_MSC_GDPS_GeopotentialHeight_IsbL-0350_LatLon0.15_PT123H.grib2 2026-04-22 04:34 624K
20260422T00Z_MSC_GDPS_GeopotentialHeight_IsbL-0400_LatLon0.15_PT123H.grib2 2026-04-22 04:34 617K
20260422T00Z_MSC_GDPS_GeopotentialHeight_IsbL-0450_LatLon0.15_PT123H.grib2 2026-04-22 04:34 609K
20260422T00Z_MSC_GDPS_GeopotentialHeight_IsbL-0500_LatLon0.15_PT123H.grib2 2026-04-22 04:34 529K
20260422T00Z_MSC_GDPS_GeopotentialHeight_IsbL-0550_LatLon0.15_PT123H.grib2 2026-04-22 04:34 519K
20260422T00Z_MSC_GDPS_GeopotentialHeight_IsbL-0600_LatLon0.15_PT123H.grib2 2026-04-22 04:34 516K
20260422T00Z_MSC_GDPS_GeopotentialHeight_IsbL-0650_LatLon0.15_PT123H.grib2 2026-04-22 04:34 682K
20260422T00Z_MSC_GDPS_GeopotentialHeight_IsbL-0700_LatLon0.15_PT123H.grib2 2026-04-22 04:34 678K
20260422T00Z_MSC_GDPS_GeopotentialHeight_IsbL-0750_LatLon0.15_PT123H.grib2 2026-04-22 04:34 688K
20260422T00Z_MSC_GDPS_GeopotentialHeight_IsbL-0800_LatLon0.15_PT123H.grib2 2026-04-22 04:34 701K
20260422T00Z_MSC_GDPS_GeopotentialHeight_IsbL-0850_LatLon0.15_PT123H.grib2 2026-04-22 04:34 706K
20260422T00Z_MSC_GDPS_GeopotentialHeight_IsbL-0875_LatLon0.15_PT123H.grib2 2026-04-22 04:34 712K
20260422T00Z_MSC_GDPS_GeopotentialHeight_IsbL-0900_LatLon0.15_PT123H.grib2 2026-04-22 04:34 721K
20260422T00Z_MSC_GDPS_GeopotentialHeight_IsbL-0925_LatLon0.15_PT123H.grib2 2026-04-22 04:34 730K
20260422T00Z_MSC_GDPS_GeopotentialHeight_IsbL-0950_LatLon0.15_PT123H.grib2 2026-04-22 04:34 736K
20260422T00Z_MSC_GDPS_GeopotentialHeight_IsbL-0970_LatLon0.15_PT123H.grib2 2026-04-22 04:34 747K
20260422T00Z_MSC_GDPS_GeopotentialHeight_IsbL-0985_LatLon0.15_PT123H.grib2 2026-04-22 04:34 763K
20260422T00Z_MSC_GDPS_GeopotentialHeight_IsbL-1000_LatLon0.15_PT123H.grib2 2026-04-22 04:34 785K
20260422T00Z_MSC_GDPS_GeopotentialHeight_IsbL-1015_LatLon0.15_PT123H.grib2 2026-04-22 04:34 808K
20260422T00Z_MSC_GDPS_Humidex_Sfc_LatLon0.15_PT123H.grib2 2026-04-22 04:34 5.3M
20260422T00Z_MSC_GDPS_IcePellets-Accum1h_Sfc_LatLon0.15_PT123H.grib2 2026-04-22 04:34 12K
20260422T00Z_MSC_GDPS_IcePellets-Accum3h_Sfc_LatLon0.15_PT123H.grib2 2026-04-22 04:34 14K
20260422T00Z_MSC_GDPS_IcePellets-Accum_Sfc_LatLon0.15_PT123H.grib2 2026-04-22 04:34 150K
20260422T00Z_MSC_GDPS_KIndex_Sfc_LatLon0.15_PT123H.grib2 2026-04-22 04:34 6.5M
20260422T00Z_MSC_GDPS_LatentHeatNetFlux_Sfc_LatLon0.15_PT123H.grib2 2026-04-22 04:34 679K
20260422T00Z_MSC_GDPS_LiftedIndex-MU-VT_IsbL-0500_LatLon0.15_PT123H.grib2 2026-04-22 04:34 5.4M
20260422T00Z_MSC_GDPS_NetLongwaveRadiationFlux-Accum_Sfc_LatLon0.15_PT123H.grib2 2026-04-22 04:34 1.0M
20260422T00Z_MSC_GDPS_NetShortwaveRadiationFlux-Accum_Sfc_LatLon0.15_PT123H.grib2 2026-04-22 04:34 1.0M
20260422T00Z_MSC_GDPS_O3MixingRatio_LatLon0.15_PT123H.grib2 2026-04-22 04:59 1.9M
20260422T00Z_MSC_GDPS_O3_EAtm_LatLon0.15_PT123H.grib2 2026-04-22 04:59 2.4M
20260422T00Z_MSC_GDPS_PlanetaryBoundaryLayerHeight_Sfc_LatLon0.15_PT123H.grib2 2026-04-22 04:34 2.4M
20260422T00Z_MSC_GDPS_Precip-Accum1h_Sfc_LatLon0.15_PT123H.grib2 2026-04-22 04:34 3.2M
20260422T00Z_MSC_GDPS_Precip-Accum3h_Sfc_LatLon0.15_PT123H.grib2 2026-04-22 04:34 3.5M
20260422T00Z_MSC_GDPS_Precip-Accum_Sfc_LatLon0.15_PT123H.grib2 2026-04-22 04:34 5.2M
20260422T00Z_MSC_GDPS_PrecipRate_Sfc_LatLon0.15_PT123H.grib2 2026-04-22 04:34 3.0M
20260422T00Z_MSC_GDPS_PrecipType-Instant_Sfc_LatLon0.15_PT123H.grib2 2026-04-22 04:34 1.5M
20260422T00Z_MSC_GDPS_Pressure_MSL_LatLon0.15_PT123H.grib2 2026-04-22 04:34 718K
20260422T00Z_MSC_GDPS_Pressure_PVU-1.5_LatLon0.15_PT123H.grib2 2026-04-22 04:34 5.8M
20260422T00Z_MSC_GDPS_Pressure_PVU-1_LatLon0.15_PT123H.grib2 2026-04-22 04:34 6.0M
20260422T00Z_MSC_GDPS_Pressure_PVU-2_LatLon0.15_PT123H.grib2 2026-04-22 04:34 5.6M
20260422T00Z_MSC_GDPS_Pressure_Sfc_LatLon0.15_PT123H.grib2 2026-04-22 04:34 1.1M
20260422T00Z_MSC_GDPS_RadiativeTemp_Sfc_LatLon0.15_PT123H.grib2 2026-04-22 04:34 665K
20260422T00Z_MSC_GDPS_Rain-Accum1h_Sfc_LatLon0.15_PT123H.grib2 2026-04-22 04:34 1.6M
20260422T00Z_MSC_GDPS_Rain-Accum3h_Sfc_LatLon0.15_PT123H.grib2 2026-04-22 04:34 1.7M
20260422T00Z_MSC_GDPS_Rain-Accum_Sfc_LatLon0.15_PT123H.grib2 2026-04-22 04:34 3.9M
20260422T00Z_MSC_GDPS_RelativeHumidity_AGL-2m_LatLon0.15_PT123H.grib2 2026-04-22 04:34 1.1M
20260422T00Z_MSC_GDPS_RelativeHumidity_IsbL-0010_LatLon0.15_PT123H.grib2 2026-04-22 04:34 251K
20260422T00Z_MSC_GDPS_RelativeHumidity_IsbL-0020_LatLon0.15_PT123H.grib2 2026-04-22 04:34 262K
20260422T00Z_MSC_GDPS_RelativeHumidity_IsbL-0030_LatLon0.15_PT123H.grib2 2026-04-22 04:34 339K
20260422T00Z_MSC_GDPS_RelativeHumidity_IsbL-0050_LatLon0.15_PT123H.grib2 2026-04-22 04:34 325K
20260422T00Z_MSC_GDPS_RelativeHumidity_IsbL-0100_LatLon0.15_PT123H.grib2 2026-04-22 04:34 489K
20260422T00Z_MSC_GDPS_RelativeHumidity_IsbL-0150_LatLon0.15_PT123H.grib2 2026-04-22 04:34 646K
20260422T00Z_MSC_GDPS_RelativeHumidity_IsbL-0175_LatLon0.15_PT123H.grib2 2026-04-22 04:34 769K
20260422T00Z_MSC_GDPS_RelativeHumidity_IsbL-0200_LatLon0.15_PT123H.grib2 2026-04-22 04:34 687K
20260422T00Z_MSC_GDPS_RelativeHumidity_IsbL-0225_LatLon0.15_PT123H.grib2 2026-04-22 04:34 777K
20260422T00Z_MSC_GDPS_RelativeHumidity_IsbL-0250_LatLon0.15_PT123H.grib2 2026-04-22 04:34 857K
20260422T00Z_MSC_GDPS_RelativeHumidity_IsbL-0275_LatLon0.15_PT123H.grib2 2026-04-22 04:34 884K
20260422T00Z_MSC_GDPS_RelativeHumidity_IsbL-0300_LatLon0.15_PT123H.grib2 2026-04-22 04:34 931K
20260422T00Z_MSC_GDPS_RelativeHumidity_IsbL-0350_LatLon0.15_PT123H.grib2 2026-04-22 04:34 954K
20260422T00Z_MSC_GDPS_RelativeHumidity_IsbL-0400_LatLon0.15_PT123H.grib2 2026-04-22 04:34 1.0M
20260422T00Z_MSC_GDPS_RelativeHumidity_IsbL-0450_LatLon0.15_PT123H.grib2 2026-04-22 04:34 1.0M
20260422T00Z_MSC_GDPS_RelativeHumidity_IsbL-0500_LatLon0.15_PT123H.grib2 2026-04-22 04:34 1.0M
20260422T00Z_MSC_GDPS_RelativeHumidity_IsbL-0550_LatLon0.15_PT123H.grib2 2026-04-22 04:34 1.0M
20260422T00Z_MSC_GDPS_RelativeHumidity_IsbL-0600_LatLon0.15_PT123H.grib2 2026-04-22 04:34 1.1M
20260422T00Z_MSC_GDPS_RelativeHumidity_IsbL-0650_LatLon0.15_PT123H.grib2 2026-04-22 04:34 1.1M
20260422T00Z_MSC_GDPS_RelativeHumidity_IsbL-0700_LatLon0.15_PT123H.grib2 2026-04-22 04:34 1.1M
20260422T00Z_MSC_GDPS_RelativeHumidity_IsbL-0750_LatLon0.15_PT123H.grib2 2026-04-22 04:34 1.2M
20260422T00Z_MSC_GDPS_RelativeHumidity_IsbL-0800_LatLon0.15_PT123H.grib2 2026-04-22 04:34 1.2M
20260422T00Z_MSC_GDPS_RelativeHumidity_IsbL-0850_LatLon0.15_PT123H.grib2 2026-04-22 04:34 1.3M
20260422T00Z_MSC_GDPS_RelativeHumidity_IsbL-0875_LatLon0.15_PT123H.grib2 2026-04-22 04:34 1.3M
20260422T00Z_MSC_GDPS_RelativeHumidity_IsbL-0900_LatLon0.15_PT123H.grib2 2026-04-22 04:34 1.3M
20260422T00Z_MSC_GDPS_RelativeHumidity_IsbL-0925_LatLon0.15_PT123H.grib2 2026-04-22 04:34 1.2M
20260422T00Z_MSC_GDPS_RelativeHumidity_IsbL-0950_LatLon0.15_PT123H.grib2 2026-04-22 04:34 1.2M
20260422T00Z_MSC_GDPS_RelativeHumidity_IsbL-0970_LatLon0.15_PT123H.grib2 2026-04-22 04:34 1.2M
20260422T00Z_MSC_GDPS_RelativeHumidity_IsbL-0985_LatLon0.15_PT123H.grib2 2026-04-22 04:34 1.1M
20260422T00Z_MSC_GDPS_RelativeHumidity_IsbL-1000_LatLon0.15_PT123H.grib2 2026-04-22 04:34 1.1M
20260422T00Z_MSC_GDPS_RelativeHumidity_IsbL-1015_LatLon0.15_PT123H.grib2 2026-04-22 04:34 1.0M
20260422T00Z_MSC_GDPS_RelativeVorticity_IsbL-0200_LatLon0.15_PT123H.grib2 2026-04-22 04:34 1.2M
20260422T00Z_MSC_GDPS_RelativeVorticity_IsbL-0250_LatLon0.15_PT123H.grib2 2026-04-22 04:34 1.5M
20260422T00Z_MSC_GDPS_RelativeVorticity_IsbL-0500_LatLon0.15_PT123H.grib2 2026-04-22 04:34 1.4M
20260422T00Z_MSC_GDPS_RelativeVorticity_IsbL-0700_LatLon0.15_PT123H.grib2 2026-04-22 04:34 1.6M
20260422T00Z_MSC_GDPS_RelativeVorticity_IsbL-0850_LatLon0.15_PT123H.grib2 2026-04-22 04:34 1.6M
20260422T00Z_MSC_GDPS_Runoff-Accum_Sfc_LatLon0.15_PT123H.grib2 2026-04-22 04:34 132K
20260422T00Z_MSC_GDPS_SensibleHeatNetFlux_Sfc_LatLon0.15_PT123H.grib2 2026-04-22 04:34 468K
20260422T00Z_MSC_GDPS_ShowalterIndex_IsbL-0500_LatLon0.15_PT123H.grib2 2026-04-22 04:34 6.2M
20260422T00Z_MSC_GDPS_Snow-Accum1h_Sfc_LatLon0.15_PT123H.grib2 2026-04-22 04:34 1.1M
20260422T00Z_MSC_GDPS_Snow-Accum3h_Sfc_LatLon0.15_PT123H.grib2 2026-04-22 04:34 1.1M
20260422T00Z_MSC_GDPS_Snow-Accum_Sfc_LatLon0.15_PT123H.grib2 2026-04-22 04:34 2.0M
20260422T00Z_MSC_GDPS_SnowDensity_Sfc_LatLon0.15_PT123H.grib2 2026-04-22 04:34 271K
20260422T00Z_MSC_GDPS_SnowDepth_Sfc_LatLon0.15_PT123H.grib2 2026-04-22 04:34 1.8M
20260422T00Z_MSC_GDPS_SoilTemp_DBS-0to10cm_LatLon0.15_PT123H.grib2 2026-04-22 04:34 508K
20260422T00Z_MSC_GDPS_SoilTemp_Sfc_LatLon0.15_PT123H.grib2 2026-04-22 04:34 571K
20260422T00Z_MSC_GDPS_SoilVolumetricIceContent_Sfc_LatLon0.15_PT123H.grib2 2026-04-22 04:34 213K
20260422T00Z_MSC_GDPS_SoilVolumetricWaterContent_DBS-0to10cm_LatLon0.15_PT123H.grib2 2026-04-22 04:34 570K
20260422T00Z_MSC_GDPS_SoilVolumetricWaterContent_DBS-0to1cm_LatLon0.15_PT123H.grib2 2026-04-22 04:34 657K
20260422T00Z_MSC_GDPS_SpecificHumidity_AGL-120m_LatLon0.15_PT123H.grib2 2026-04-22 04:34 1.1M
20260422T00Z_MSC_GDPS_SpecificHumidity_AGL-2m_LatLon0.15_PT123H.grib2 2026-04-22 04:34 1.2M
20260422T00Z_MSC_GDPS_SpecificHumidity_AGL-40m_LatLon0.15_PT123H.grib2 2026-04-22 04:34 1.1M
20260422T00Z_MSC_GDPS_SpecificHumidity_AGL-80m_LatLon0.15_PT123H.grib2 2026-04-22 04:34 1.1M
20260422T00Z_MSC_GDPS_SpecificHumidity_IsbL-0001_LatLon0.15_PT123H.grib2 2026-04-22 04:34 1.2M
20260422T00Z_MSC_GDPS_SpecificHumidity_IsbL-0005_LatLon0.15_PT123H.grib2 2026-04-22 04:34 1.4M
20260422T00Z_MSC_GDPS_SpecificHumidity_IsbL-0010_LatLon0.15_PT123H.grib2 2026-04-22 04:34 1.2M
20260422T00Z_MSC_GDPS_SpecificHumidity_IsbL-0020_LatLon0.15_PT123H.grib2 2026-04-22 04:34 1.3M
20260422T00Z_MSC_GDPS_SpecificHumidity_IsbL-0030_LatLon0.15_PT123H.grib2 2026-04-22 04:34 1.5M
20260422T00Z_MSC_GDPS_SpecificHumidity_IsbL-0050_LatLon0.15_PT123H.grib2 2026-04-22 04:34 1.3M
20260422T00Z_MSC_GDPS_SpecificHumidity_IsbL-0100_LatLon0.15_PT123H.grib2 2026-04-22 04:34 1.3M
20260422T00Z_MSC_GDPS_SpecificHumidity_IsbL-0150_LatLon0.15_PT123H.grib2 2026-04-22 04:34 1.2M
20260422T00Z_MSC_GDPS_SpecificHumidity_IsbL-0175_LatLon0.15_PT123H.grib2 2026-04-22 04:34 1.2M
20260422T00Z_MSC_GDPS_SpecificHumidity_IsbL-0200_LatLon0.15_PT123H.grib2 2026-04-22 04:34 1.3M
20260422T00Z_MSC_GDPS_SpecificHumidity_IsbL-0225_LatLon0.15_PT123H.grib2 2026-04-22 04:34 1.3M
20260422T00Z_MSC_GDPS_SpecificHumidity_IsbL-0250_LatLon0.15_PT123H.grib2 2026-04-22 04:34 1.4M
20260422T00Z_MSC_GDPS_SpecificHumidity_IsbL-0275_LatLon0.15_PT123H.grib2 2026-04-22 04:34 1.3M
20260422T00Z_MSC_GDPS_SpecificHumidity_IsbL-0300_LatLon0.15_PT123H.grib2 2026-04-22 04:34 1.2M
20260422T00Z_MSC_GDPS_SpecificHumidity_IsbL-0350_LatLon0.15_PT123H.grib2 2026-04-22 04:34 1.2M
20260422T00Z_MSC_GDPS_SpecificHumidity_IsbL-0400_LatLon0.15_PT123H.grib2 2026-04-22 04:34 1.5M
20260422T00Z_MSC_GDPS_SpecificHumidity_IsbL-0450_LatLon0.15_PT123H.grib2 2026-04-22 04:34 1.6M
20260422T00Z_MSC_GDPS_SpecificHumidity_IsbL-0500_LatLon0.15_PT123H.grib2 2026-04-22 04:34 1.4M
20260422T00Z_MSC_GDPS_SpecificHumidity_IsbL-0550_LatLon0.15_PT123H.grib2 2026-04-22 04:34 1.6M
20260422T00Z_MSC_GDPS_SpecificHumidity_IsbL-0600_LatLon0.15_PT123H.grib2 2026-04-22 04:34 1.7M
20260422T00Z_MSC_GDPS_SpecificHumidity_IsbL-0650_LatLon0.15_PT123H.grib2 2026-04-22 04:34 1.5M
20260422T00Z_MSC_GDPS_SpecificHumidity_IsbL-0700_LatLon0.15_PT123H.grib2 2026-04-22 04:34 1.6M
20260422T00Z_MSC_GDPS_SpecificHumidity_IsbL-0750_LatLon0.15_PT123H.grib2 2026-04-22 04:34 1.7M
20260422T00Z_MSC_GDPS_SpecificHumidity_IsbL-0800_LatLon0.15_PT123H.grib2 2026-04-22 04:34 1.9M
20260422T00Z_MSC_GDPS_SpecificHumidity_IsbL-0850_LatLon0.15_PT123H.grib2 2026-04-22 04:34 1.9M
20260422T00Z_MSC_GDPS_SpecificHumidity_IsbL-0875_LatLon0.15_PT123H.grib2 2026-04-22 04:34 1.9M
20260422T00Z_MSC_GDPS_SpecificHumidity_IsbL-0900_LatLon0.15_PT123H.grib2 2026-04-22 04:34 1.9M
20260422T00Z_MSC_GDPS_SpecificHumidity_IsbL-0925_LatLon0.15_PT123H.grib2 2026-04-22 04:34 1.9M
20260422T00Z_MSC_GDPS_SpecificHumidity_IsbL-0950_LatLon0.15_PT123H.grib2 2026-04-22 04:34 1.5M
20260422T00Z_MSC_GDPS_SpecificHumidity_IsbL-0970_LatLon0.15_PT123H.grib2 2026-04-22 04:34 1.5M
20260422T00Z_MSC_GDPS_SpecificHumidity_IsbL-0985_LatLon0.15_PT123H.grib2 2026-04-22 04:34 1.5M
20260422T00Z_MSC_GDPS_SpecificHumidity_IsbL-1000_LatLon0.15_PT123H.grib2 2026-04-22 04:34 1.5M
20260422T00Z_MSC_GDPS_SpecificHumidity_IsbL-1015_LatLon0.15_PT123H.grib2 2026-04-22 04:34 1.4M
20260422T00Z_MSC_GDPS_SpecificHumidity_Sfc_LatLon0.15_PT123H.grib2 2026-04-22 04:34 632K
20260422T00Z_MSC_GDPS_Thickness_IsbL-0850to0700_LatLon0.15_PT123H.grib2 2026-04-22 04:34 463K
20260422T00Z_MSC_GDPS_Thickness_IsbL-1000to0500_LatLon0.15_PT123H.grib2 2026-04-22 04:34 369K
20260422T00Z_MSC_GDPS_Thickness_IsbL-1000to0850_LatLon0.15_PT123H.grib2 2026-04-22 04:34 487K
20260422T00Z_MSC_GDPS_TotalCloudCover_Sfc_LatLon0.15_PT123H.grib2 2026-04-22 04:34 825K
20260422T00Z_MSC_GDPS_TotalTotalsIndex_Sfc_LatLon0.15_PT123H.grib2 2026-04-22 04:34 6.2M
20260422T00Z_MSC_GDPS_UVIndex-ClearSky_Sfc_LatLon0.15_PT123H.grib2 2026-04-22 04:59 1.0M
20260422T00Z_MSC_GDPS_UVIndex_Sfc_LatLon0.15_PT123H.grib2 2026-04-22 04:59 1.5M
20260422T00Z_MSC_GDPS_UpwardLongwaveRadiationFlux_NTAtm_LatLon0.15_PT123H.grib2 2026-04-22 04:34 1.1M
20260422T00Z_MSC_GDPS_VerticalVelocity_IsbL-0200_LatLon0.15_PT123H.grib2 2026-04-22 04:34 1.1M
20260422T00Z_MSC_GDPS_VerticalVelocity_IsbL-0250_LatLon0.15_PT123H.grib2 2026-04-22 04:34 1.0M
20260422T00Z_MSC_GDPS_VerticalVelocity_IsbL-0500_LatLon0.15_PT123H.grib2 2026-04-22 04:34 1.0M
20260422T00Z_MSC_GDPS_VerticalVelocity_IsbL-0600_LatLon0.15_PT123H.grib2 2026-04-22 04:34 1.1M
20260422T00Z_MSC_GDPS_VerticalVelocity_IsbL-0700_LatLon0.15_PT123H.grib2 2026-04-22 04:34 1.1M
20260422T00Z_MSC_GDPS_VerticalVelocity_IsbL-0850_LatLon0.15_PT123H.grib2 2026-04-22 04:34 1.6M
20260422T00Z_MSC_GDPS_WindChill_Sfc_LatLon0.15_PT123H.grib2 2026-04-22 04:34 5.3M
20260422T00Z_MSC_GDPS_WindDir_AGL-10m_LatLon0.15_PT123H.grib2 2026-04-22 04:34 1.3M
20260422T00Z_MSC_GDPS_WindDir_AGL-120m_LatLon0.15_PT123H.grib2 2026-04-22 04:34 1.4M
20260422T00Z_MSC_GDPS_WindDir_AGL-40m_LatLon0.15_PT123H.grib2 2026-04-22 04:34 1.4M
20260422T00Z_MSC_GDPS_WindDir_AGL-80m_LatLon0.15_PT123H.grib2 2026-04-22 04:34 1.4M
20260422T00Z_MSC_GDPS_WindDir_IsbL-0001_LatLon0.15_PT123H.grib2 2026-04-22 04:34 670K
20260422T00Z_MSC_GDPS_WindDir_IsbL-0005_LatLon0.15_PT123H.grib2 2026-04-22 04:34 784K
20260422T00Z_MSC_GDPS_WindDir_IsbL-0010_LatLon0.15_PT123H.grib2 2026-04-22 04:34 865K
20260422T00Z_MSC_GDPS_WindDir_IsbL-0020_LatLon0.15_PT123H.grib2 2026-04-22 04:34 932K
20260422T00Z_MSC_GDPS_WindDir_IsbL-0030_LatLon0.15_PT123H.grib2 2026-04-22 04:34 913K
20260422T00Z_MSC_GDPS_WindDir_IsbL-0050_LatLon0.15_PT123H.grib2 2026-04-22 04:34 952K
20260422T00Z_MSC_GDPS_WindDir_IsbL-0100_LatLon0.15_PT123H.grib2 2026-04-22 04:34 1.0M
20260422T00Z_MSC_GDPS_WindDir_IsbL-0150_LatLon0.15_PT123H.grib2 2026-04-22 04:34 1.0M
20260422T00Z_MSC_GDPS_WindDir_IsbL-0175_LatLon0.15_PT123H.grib2 2026-04-22 04:34 1.0M
20260422T00Z_MSC_GDPS_WindDir_IsbL-0200_LatLon0.15_PT123H.grib2 2026-04-22 04:34 1.1M
20260422T00Z_MSC_GDPS_WindDir_IsbL-0225_LatLon0.15_PT123H.grib2 2026-04-22 04:34 1.1M
20260422T00Z_MSC_GDPS_WindDir_IsbL-0250_LatLon0.15_PT123H.grib2 2026-04-22 04:34 1.1M
20260422T00Z_MSC_GDPS_WindDir_IsbL-0275_LatLon0.15_PT123H.grib2 2026-04-22 04:34 1.2M
20260422T00Z_MSC_GDPS_WindDir_IsbL-0300_LatLon0.15_PT123H.grib2 2026-04-22 04:34 1.2M
20260422T00Z_MSC_GDPS_WindDir_IsbL-0350_LatLon0.15_PT123H.grib2 2026-04-22 04:34 1.2M
20260422T00Z_MSC_GDPS_WindDir_IsbL-0400_LatLon0.15_PT123H.grib2 2026-04-22 04:34 1.2M
20260422T00Z_MSC_GDPS_WindDir_IsbL-0450_LatLon0.15_PT123H.grib2 2026-04-22 04:34 1.3M
20260422T00Z_MSC_GDPS_WindDir_IsbL-0500_LatLon0.15_PT123H.grib2 2026-04-22 04:34 1.3M
20260422T00Z_MSC_GDPS_WindDir_IsbL-0550_LatLon0.15_PT123H.grib2 2026-04-22 04:34 1.4M
20260422T00Z_MSC_GDPS_WindDir_IsbL-0600_LatLon0.15_PT123H.grib2 2026-04-22 04:34 1.5M
20260422T00Z_MSC_GDPS_WindDir_IsbL-0650_LatLon0.15_PT123H.grib2 2026-04-22 04:34 1.5M
20260422T00Z_MSC_GDPS_WindDir_IsbL-0700_LatLon0.15_PT123H.grib2 2026-04-22 04:34 1.6M
20260422T00Z_MSC_GDPS_WindDir_IsbL-0750_LatLon0.15_PT123H.grib2 2026-04-22 04:34 1.7M
20260422T00Z_MSC_GDPS_WindDir_IsbL-0800_LatLon0.15_PT123H.grib2 2026-04-22 04:34 1.8M
20260422T00Z_MSC_GDPS_WindDir_IsbL-0850_LatLon0.15_PT123H.grib2 2026-04-22 04:34 1.9M
20260422T00Z_MSC_GDPS_WindDir_IsbL-0875_LatLon0.15_PT123H.grib2 2026-04-22 04:34 2.0M
20260422T00Z_MSC_GDPS_WindDir_IsbL-0900_LatLon0.15_PT123H.grib2 2026-04-22 04:34 2.0M
20260422T00Z_MSC_GDPS_WindDir_IsbL-0925_LatLon0.15_PT123H.grib2 2026-04-22 04:34 2.0M
20260422T00Z_MSC_GDPS_WindDir_IsbL-0950_LatLon0.15_PT123H.grib2 2026-04-22 04:34 2.0M
20260422T00Z_MSC_GDPS_WindDir_IsbL-0970_LatLon0.15_PT123H.grib2 2026-04-22 04:34 2.0M
20260422T00Z_MSC_GDPS_WindDir_IsbL-0985_LatLon0.15_PT123H.grib2 2026-04-22 04:34 2.0M
20260422T00Z_MSC_GDPS_WindDir_IsbL-1000_LatLon0.15_PT123H.grib2 2026-04-22 04:34 2.1M
20260422T00Z_MSC_GDPS_WindDir_IsbL-1015_LatLon0.15_PT123H.grib2 2026-04-22 04:34 2.0M
20260422T00Z_MSC_GDPS_WindGust-Max_AGL-10m_LatLon0.15_PT123H.grib2 2026-04-22 04:34 2.2M
20260422T00Z_MSC_GDPS_WindGust-Min_AGL-10m_LatLon0.15_PT123H.grib2 2026-04-22 04:34 2.2M
20260422T00Z_MSC_GDPS_WindGust_AGL-10m_LatLon0.15_PT123H.grib2 2026-04-22 04:34 2.2M
20260422T00Z_MSC_GDPS_WindSpeed_AGL-10m_LatLon0.15_PT123H.grib2 2026-04-22 04:34 1.1M
20260422T00Z_MSC_GDPS_WindSpeed_AGL-120m_LatLon0.15_PT123H.grib2 2026-04-22 04:34 1.3M
20260422T00Z_MSC_GDPS_WindSpeed_AGL-40m_LatLon0.15_PT123H.grib2 2026-04-22 04:34 1.2M
20260422T00Z_MSC_GDPS_WindSpeed_AGL-80m_LatLon0.15_PT123H.grib2 2026-04-22 04:34 1.3M
20260422T00Z_MSC_GDPS_WindSpeed_IsbL-0001_LatLon0.15_PT123H.grib2 2026-04-22 04:34 638K
20260422T00Z_MSC_GDPS_WindSpeed_IsbL-0005_LatLon0.15_PT123H.grib2 2026-04-22 04:34 607K
20260422T00Z_MSC_GDPS_WindSpeed_IsbL-0010_LatLon0.15_PT123H.grib2 2026-04-22 04:34 623K
20260422T00Z_MSC_GDPS_WindSpeed_IsbL-0020_LatLon0.15_PT123H.grib2 2026-04-22 04:34 851K
20260422T00Z_MSC_GDPS_WindSpeed_IsbL-0030_LatLon0.15_PT123H.grib2 2026-04-22 04:34 852K
20260422T00Z_MSC_GDPS_WindSpeed_IsbL-0050_LatLon0.15_PT123H.grib2 2026-04-22 04:34 1.0M
20260422T00Z_MSC_GDPS_WindSpeed_IsbL-0100_LatLon0.15_PT123H.grib2 2026-04-22 04:34 1.1M
20260422T00Z_MSC_GDPS_WindSpeed_IsbL-0150_LatLon0.15_PT123H.grib2 2026-04-22 04:34 1.0M
20260422T00Z_MSC_GDPS_WindSpeed_IsbL-0175_LatLon0.15_PT123H.grib2 2026-04-22 04:34 1.0M
20260422T00Z_MSC_GDPS_WindSpeed_IsbL-0200_LatLon0.15_PT123H.grib2 2026-04-22 04:34 1.0M
20260422T00Z_MSC_GDPS_WindSpeed_IsbL-0225_LatLon0.15_PT123H.grib2 2026-04-22 04:34 1.1M
20260422T00Z_MSC_GDPS_WindSpeed_IsbL-0250_LatLon0.15_PT123H.grib2 2026-04-22 04:34 1.1M
20260422T00Z_MSC_GDPS_WindSpeed_IsbL-0275_LatLon0.15_PT123H.grib2 2026-04-22 04:34 1.1M
20260422T00Z_MSC_GDPS_WindSpeed_IsbL-0300_LatLon0.15_PT123H.grib2 2026-04-22 04:34 1.1M
20260422T00Z_MSC_GDPS_WindSpeed_IsbL-0350_LatLon0.15_PT123H.grib2 2026-04-22 04:34 1.1M
20260422T00Z_MSC_GDPS_WindSpeed_IsbL-0400_LatLon0.15_PT123H.grib2 2026-04-22 04:34 1.1M
20260422T00Z_MSC_GDPS_WindSpeed_IsbL-0450_LatLon0.15_PT123H.grib2 2026-04-22 04:34 1.1M
20260422T00Z_MSC_GDPS_WindSpeed_IsbL-0500_LatLon0.15_PT123H.grib2 2026-04-22 04:34 1.1M
20260422T00Z_MSC_GDPS_WindSpeed_IsbL-0550_LatLon0.15_PT123H.grib2 2026-04-22 04:34 1.1M
20260422T00Z_MSC_GDPS_WindSpeed_IsbL-0600_LatLon0.15_PT123H.grib2 2026-04-22 04:34 1.4M
20260422T00Z_MSC_GDPS_WindSpeed_IsbL-0650_LatLon0.15_PT123H.grib2 2026-04-22 04:34 1.4M
20260422T00Z_MSC_GDPS_WindSpeed_IsbL-0700_LatLon0.15_PT123H.grib2 2026-04-22 04:34 1.5M
20260422T00Z_MSC_GDPS_WindSpeed_IsbL-0750_LatLon0.15_PT123H.grib2 2026-04-22 04:34 1.5M
20260422T00Z_MSC_GDPS_WindSpeed_IsbL-0800_LatLon0.15_PT123H.grib2 2026-04-22 04:34 1.6M
20260422T00Z_MSC_GDPS_WindSpeed_IsbL-0850_LatLon0.15_PT123H.grib2 2026-04-22 04:34 1.7M
20260422T00Z_MSC_GDPS_WindSpeed_IsbL-0875_LatLon0.15_PT123H.grib2 2026-04-22 04:34 1.8M
20260422T00Z_MSC_GDPS_WindSpeed_IsbL-0900_LatLon0.15_PT123H.grib2 2026-04-22 04:34 1.8M
20260422T00Z_MSC_GDPS_WindSpeed_IsbL-0925_LatLon0.15_PT123H.grib2 2026-04-22 04:34 1.8M
20260422T00Z_MSC_GDPS_WindSpeed_IsbL-0950_LatLon0.15_PT123H.grib2 2026-04-22 04:34 1.9M
20260422T00Z_MSC_GDPS_WindSpeed_IsbL-0970_LatLon0.15_PT123H.grib2 2026-04-22 04:34 1.9M
20260422T00Z_MSC_GDPS_WindSpeed_IsbL-0985_LatLon0.15_PT123H.grib2 2026-04-22 04:34 1.9M
20260422T00Z_MSC_GDPS_WindSpeed_IsbL-1000_LatLon0.15_PT123H.grib2 2026-04-22 04:34 1.9M
20260422T00Z_MSC_GDPS_WindSpeed_IsbL-1015_LatLon0.15_PT123H.grib2 2026-04-22 04:34 1.8M
20260422T00Z_MSC_GDPS_WindU_AGL-10m_LatLon0.15_PT123H.grib2 2026-04-22 04:34 1.6M
20260422T00Z_MSC_GDPS_WindU_AGL-120m_LatLon0.15_PT123H.grib2 2026-04-22 04:34 1.0M
20260422T00Z_MSC_GDPS_WindU_AGL-40m_LatLon0.15_PT123H.grib2 2026-04-22 04:34 971K
20260422T00Z_MSC_GDPS_WindU_AGL-80m_LatLon0.15_PT123H.grib2 2026-04-22 04:34 1.0M
20260422T00Z_MSC_GDPS_WindU_IsbL-0001_LatLon0.15_PT123H.grib2 2026-04-22 04:34 497K
20260422T00Z_MSC_GDPS_WindU_IsbL-0005_LatLon0.15_PT123H.grib2 2026-04-22 04:34 687K
20260422T00Z_MSC_GDPS_WindU_IsbL-0010_LatLon0.15_PT123H.grib2 2026-04-22 04:34 697K
20260422T00Z_MSC_GDPS_WindU_IsbL-0020_LatLon0.15_PT123H.grib2 2026-04-22 04:34 651K
20260422T00Z_MSC_GDPS_WindU_IsbL-0030_LatLon0.15_PT123H.grib2 2026-04-22 04:34 733K
20260422T00Z_MSC_GDPS_WindU_IsbL-0050_LatLon0.15_PT123H.grib2 2026-04-22 04:34 691K
20260422T00Z_MSC_GDPS_WindU_IsbL-0100_LatLon0.15_PT123H.grib2 2026-04-22 04:34 904K
20260422T00Z_MSC_GDPS_WindU_IsbL-0150_LatLon0.15_PT123H.grib2 2026-04-22 04:34 1.0M
20260422T00Z_MSC_GDPS_WindU_IsbL-0175_LatLon0.15_PT123H.grib2 2026-04-22 04:34 1.0M
20260422T00Z_MSC_GDPS_WindU_IsbL-0200_LatLon0.15_PT123H.grib2 2026-04-22 04:34 835K
20260422T00Z_MSC_GDPS_WindU_IsbL-0225_LatLon0.15_PT123H.grib2 2026-04-22 04:34 847K
20260422T00Z_MSC_GDPS_WindU_IsbL-0250_LatLon0.15_PT123H.grib2 2026-04-22 04:34 848K
20260422T00Z_MSC_GDPS_WindU_IsbL-0275_LatLon0.15_PT123H.grib2 2026-04-22 04:34 874K
20260422T00Z_MSC_GDPS_WindU_IsbL-0300_LatLon0.15_PT123H.grib2 2026-04-22 04:34 866K
20260422T00Z_MSC_GDPS_WindU_IsbL-0350_LatLon0.15_PT123H.grib2 2026-04-22 04:34 1.1M
20260422T00Z_MSC_GDPS_WindU_IsbL-0400_LatLon0.15_PT123H.grib2 2026-04-22 04:34 1.1M
20260422T00Z_MSC_GDPS_WindU_IsbL-0450_LatLon0.15_PT123H.grib2 2026-04-22 04:34 1.1M
20260422T00Z_MSC_GDPS_WindU_IsbL-0500_LatLon0.15_PT123H.grib2 2026-04-22 04:34 1.1M
20260422T00Z_MSC_GDPS_WindU_IsbL-0550_LatLon0.15_PT123H.grib2 2026-04-22 04:34 1.1M
20260422T00Z_MSC_GDPS_WindU_IsbL-0600_LatLon0.15_PT123H.grib2 2026-04-22 04:34 1.1M
20260422T00Z_MSC_GDPS_WindU_IsbL-0650_LatLon0.15_PT123H.grib2 2026-04-22 04:34 1.2M
20260422T00Z_MSC_GDPS_WindU_IsbL-0700_LatLon0.15_PT123H.grib2 2026-04-22 04:34 1.2M
20260422T00Z_MSC_GDPS_WindU_IsbL-0750_LatLon0.15_PT123H.grib2 2026-04-22 04:34 1.3M
20260422T00Z_MSC_GDPS_WindU_IsbL-0800_LatLon0.15_PT123H.grib2 2026-04-22 04:34 1.3M
20260422T00Z_MSC_GDPS_WindU_IsbL-0850_LatLon0.15_PT123H.grib2 2026-04-22 04:34 1.4M
20260422T00Z_MSC_GDPS_WindU_IsbL-0875_LatLon0.15_PT123H.grib2 2026-04-22 04:34 1.4M
20260422T00Z_MSC_GDPS_WindU_IsbL-0900_LatLon0.15_PT123H.grib2 2026-04-22 04:34 1.5M
20260422T00Z_MSC_GDPS_WindU_IsbL-0925_LatLon0.15_PT123H.grib2 2026-04-22 04:34 1.5M
20260422T00Z_MSC_GDPS_WindU_IsbL-0950_LatLon0.15_PT123H.grib2 2026-04-22 04:34 1.4M
20260422T00Z_MSC_GDPS_WindU_IsbL-0970_LatLon0.15_PT123H.grib2 2026-04-22 04:34 1.4M
20260422T00Z_MSC_GDPS_WindU_IsbL-0985_LatLon0.15_PT123H.grib2 2026-04-22 04:34 1.4M
20260422T00Z_MSC_GDPS_WindU_IsbL-1000_LatLon0.15_PT123H.grib2 2026-04-22 04:34 1.4M
20260422T00Z_MSC_GDPS_WindU_IsbL-1015_LatLon0.15_PT123H.grib2 2026-04-22 04:34 1.7M
20260422T00Z_MSC_GDPS_WindV_AGL-10m_LatLon0.15_PT123H.grib2 2026-04-22 04:34 1.6M
20260422T00Z_MSC_GDPS_WindV_AGL-120m_LatLon0.15_PT123H.grib2 2026-04-22 04:34 1.0M
20260422T00Z_MSC_GDPS_WindV_AGL-40m_LatLon0.15_PT123H.grib2 2026-04-22 04:34 972K
20260422T00Z_MSC_GDPS_WindV_AGL-80m_LatLon0.15_PT123H.grib2 2026-04-22 04:34 1.0M
20260422T00Z_MSC_GDPS_WindV_IsbL-0001_LatLon0.15_PT123H.grib2 2026-04-22 04:34 767K
20260422T00Z_MSC_GDPS_WindV_IsbL-0005_LatLon0.15_PT123H.grib2 2026-04-22 04:34 850K
20260422T00Z_MSC_GDPS_WindV_IsbL-0010_LatLon0.15_PT123H.grib2 2026-04-22 04:34 876K
20260422T00Z_MSC_GDPS_WindV_IsbL-0020_LatLon0.15_PT123H.grib2 2026-04-22 04:34 842K
20260422T00Z_MSC_GDPS_WindV_IsbL-0030_LatLon0.15_PT123H.grib2 2026-04-22 04:34 843K
20260422T00Z_MSC_GDPS_WindV_IsbL-0050_LatLon0.15_PT123H.grib2 2026-04-22 04:34 1.0M
20260422T00Z_MSC_GDPS_WindV_IsbL-0100_LatLon0.15_PT123H.grib2 2026-04-22 04:34 1.0M
20260422T00Z_MSC_GDPS_WindV_IsbL-0150_LatLon0.15_PT123H.grib2 2026-04-22 04:34 1.0M
20260422T00Z_MSC_GDPS_WindV_IsbL-0175_LatLon0.15_PT123H.grib2 2026-04-22 04:34 1.0M
20260422T00Z_MSC_GDPS_WindV_IsbL-0200_LatLon0.15_PT123H.grib2 2026-04-22 04:34 833K
20260422T00Z_MSC_GDPS_WindV_IsbL-0225_LatLon0.15_PT123H.grib2 2026-04-22 04:34 843K
20260422T00Z_MSC_GDPS_WindV_IsbL-0250_LatLon0.15_PT123H.grib2 2026-04-22 04:34 844K
20260422T00Z_MSC_GDPS_WindV_IsbL-0275_LatLon0.15_PT123H.grib2 2026-04-22 04:34 868K
20260422T00Z_MSC_GDPS_WindV_IsbL-0300_LatLon0.15_PT123H.grib2 2026-04-22 04:34 857K
20260422T00Z_MSC_GDPS_WindV_IsbL-0350_LatLon0.15_PT123H.grib2 2026-04-22 04:34 870K
20260422T00Z_MSC_GDPS_WindV_IsbL-0400_LatLon0.15_PT123H.grib2 2026-04-22 04:34 1.1M
20260422T00Z_MSC_GDPS_WindV_IsbL-0450_LatLon0.15_PT123H.grib2 2026-04-22 04:34 1.1M
20260422T00Z_MSC_GDPS_WindV_IsbL-0500_LatLon0.15_PT123H.grib2 2026-04-22 04:34 1.1M
20260422T00Z_MSC_GDPS_WindV_IsbL-0550_LatLon0.15_PT123H.grib2 2026-04-22 04:34 1.1M
20260422T00Z_MSC_GDPS_WindV_IsbL-0600_LatLon0.15_PT123H.grib2 2026-04-22 04:34 1.1M
20260422T00Z_MSC_GDPS_WindV_IsbL-0650_LatLon0.15_PT123H.grib2 2026-04-22 04:34 1.2M
20260422T00Z_MSC_GDPS_WindV_IsbL-0700_LatLon0.15_PT123H.grib2 2026-04-22 04:34 1.2M
20260422T00Z_MSC_GDPS_WindV_IsbL-0750_LatLon0.15_PT123H.grib2 2026-04-22 04:34 1.3M
20260422T00Z_MSC_GDPS_WindV_IsbL-0800_LatLon0.15_PT123H.grib2 2026-04-22 04:34 1.3M
20260422T00Z_MSC_GDPS_WindV_IsbL-0850_LatLon0.15_PT123H.grib2 2026-04-22 04:34 1.4M
20260422T00Z_MSC_GDPS_WindV_IsbL-0875_LatLon0.15_PT123H.grib2 2026-04-22 04:34 1.4M
20260422T00Z_MSC_GDPS_WindV_IsbL-0900_LatLon0.15_PT123H.grib2 2026-04-22 04:34 1.5M
20260422T00Z_MSC_GDPS_WindV_IsbL-0925_LatLon0.15_PT123H.grib2 2026-04-22 04:34 1.5M
20260422T00Z_MSC_GDPS_WindV_IsbL-0950_LatLon0.15_PT123H.grib2 2026-04-22 04:34 1.4M
20260422T00Z_MSC_GDPS_WindV_IsbL-0970_LatLon0.15_PT123H.grib2 2026-04-22 04:34 1.4M
20260422T00Z_MSC_GDPS_WindV_IsbL-0985_LatLon0.15_PT123H.grib2 2026-04-22 04:34 1.4M
20260422T00Z_MSC_GDPS_WindV_IsbL-1000_LatLon0.15_PT123H.grib2 2026-04-22 04:34 1.4M
20260422T00Z_MSC_GDPS_WindV_IsbL-1015_LatLon0.15_PT123H.grib2 2026-04-22 04:34 1.4M